Temperature
-6 -5 -5 -5 -4 -3 -2 -1 -0 1 2 3 5 6 7 7 8 8 9 9 10 10 11 11 12 12 12 13 13 13 13 13 13 13 13 13 13 13
-6 -6 -5 -5 -4 -4 -3 -2 -1 -0 0 2 3 5 5 6 7 8 8 8 9 10 10 11 11 12 12 12 12 13 13 13 13 13 13 13 13 13
-7 -6 -6 -6 -5 -4 -4 -3 -2 -1 -0 1 2 3 4 5 6 7 7 8 8 9 10 10 11 11 12 12 12 12 12 12 12 12 12 12 12 12
-7 -7 -6 -6 -6 -5 -4 -4 -3 -2 -1 -0 1 2 3 4 5 6 6 7 8 8 9 10 10 11 11 12 12 12 12 12 12 12 12 11 11 11
-7 -7 -7 -7 -6 -6 -5 -4 -3 -3 -2 -1 -0 1 2 3 4 5 5 6 7 7 8 9 9 10 11 11 12 12 12 12 12 12 11 11 11 10
-8 -7 -7 -7 -6 -6 -5 -5 -4 -3 -3 -2 -1 -0 1 2 3 4 4 5 6 6 7 8 8 9 10 10 11 11 11 11 11 11 11 10 10 10
-8 -7 -7 -7 -7 -6 -6 -5 -4 -4 -3 -2 -2 -1 -0 1 2 3 4 5 5 6 7 7 7 8 8 9 9 10 10 10 10 10 10 9 9 8
-8 -8 -8 -7 -7 -7 -6 -6 -5 -5 -4 -4 -3 -2 -1 -0 1 2 3 4 4 5 6 6 6 7 7 7 8 8 9 9 9 8 8 7 7 7
-8 -8 -8 -8 -7 -7 -7 -7 -6 -6 -6 -5 -4 -4 -3 -2 -0 1 2 3 4 4 5 5 5 5 5 5 6 7 7 7 7 6 6 6 5 5
-9 -8 -8 -8 -8 -7 -7 -7 -7 -7 -7 -6 -5 -5 -4 -3 -1 0 1 2 3 3 4 4 3 4 3 3 4 4 4 4 4 4 4 4 4 4
-9 -9 -8 -8 -8 -8 -8 -8 -8 -8 -7 -7 -6 -5 -4 -3 -2 -0 1 2 2 2 3 3 3 3 2 2 2 2 3 3 3 3 3 3 3 3
-9 -9 -9 -8 -8 -8 -8 -9 -9 -9 -8 -7 -6 -5 -4 -3 -2 -1 -0 1 1 1 2 2 2 2 1 1 1 1 1 2 2 2 2 2 2 3
-10 -10 -9 -9 -9 -9 -9 -9 -10 -9 -9 -8 -8 -7 -6 -5 -4 -3 -1 -0 0 1 1 1 1 1 1 0 0 1 1 1 1 2 2 2 2 3
-11 -11 -10 -10 -10 -10 -10 -10 -10 -9 -9 -9 -9 -9 -8 -7 -6 -5 -4 -2 -1 -1 -0 1 1 1 1 -0 -1 -0 0 1 1 1 1 2 2 2
-11 -11 -11 -11 -11 -11 -11 -11 -10 -10 -10 -10 -11 -11 -10 -9 -8 -7 -5 -4 -3 -2 -1 -0 0 0 1 1 -0 -1 -0 -0 0 0 1 1 1 2
-12 -12 -12 -12 -12 -12 -12 -11 -11 -12 -11 -11 -11 -11 -10 -10 -9 -8 -7 -6 -4 -4 -3 -2 -1 -1 -0 -0 0 -0 -0 -0 -0 -0 0 1 1 1
-13 -13 -13 -13 -13 -13 -13 -13 -12 -12 -12 -12 -12 -11 -11 -11 -10 -10 -9 -8 -7 -6 -5 -4 -3 -2 -2 -2 -2 -1 -1 -1 -1 -0 -0 -0 0 0
-13 -14 -14 -14 -14 -14 -14 -14 -14 -14 -13 -13 -13 -12 -12 -12 -11 -11 -10 -9 -9 -9 -8 -7 -6 -5 -4 -4 -5 -4 -3 -3 -3 -2 -2 -1 -1 -1
-14 -14 -14 -14 -14 -14 -14 -14 -14 -14 -14 -14 -14 -13 -13 -12 -12 -12 -11 -11 -11 -10 -10 -9 -8 -7 -6 -7 -8 -7 -6 -5 -4 -4 -3 -2 -2 -2
-14 -15 -15 -15 -15 -15 -15 -15 -15 -15 -15 -14 -14 -14 -14 -13 -13 -12 -12 -12 -11 -11 -10 -10 -9 -8 -8 -8 -9 -9 -8 -7 -6 -5 -4 -3 -3 -3
-14 -14 -15 -15 -15 -15 -15 -15 -15 -15 -15 -15 -15 -14 -14 -14 -14 -13 -13 -13 -12 -11 -11 -11 -10 -10 -9 -9 -9 -9 -9 -8 -7 -6 -5 -5 -4 -4
-14 -14 -14 -15 -15 -15 -15 -15 -15 -15 -15 -15 -15 -15 -15 -14 -14 -14 -14 -13 -13 -12 -12 -12 -11 -11 -10 -10 -10 -9 -9 -9 -8 -7 -7 -6 -5 -5
-14 -14 -14 -15 -15 -15 -15 -15 -15 -15 -15 -15 -15 -15 -15 -15 -14 -14 -14 -14 -13 -13 -13 -12 -12 -12 -11 -11 -11 -10 -10 -10 -9 -8 -8 -7 -7 -6
Wind_Speed
12 12 10 9 9 9 9 9 9 9 10 8 6 7 7 5 2 3 4 9 13 15 16 16 16 18 21 23 26 28 30 29 29 28 28 27 26 24
12 11 10 9 9 9 9 9 9 9 9 6 8 10 10 9 7 4 3 7 10 14 17 17 17 18 20 22 25 27 29 29 30 30 30 29 27 25
14 11 10 10 9 9 9 9 9 8 10 9 9 9 10 9 7 5 4 4 6 11 14 16 17 18 19 21 24 26 28 29 30 31 31 30 28 27
14 11 9 9 10 9 9 10 9 9 9 11 9 8 8 8 7 6 4 3 3 7 11 13 14 16 17 19 21 23 26 28 29 30 30 30 29 29
12 9 9 9 9 9 10 9 8 9 8 8 9 7 6 6 7 6 4 2 2 3 5 8 10 12 14 16 18 20 22 24 25 26 27 29 30 30
11 9 9 9 9 10 9 9 9 9 8 7 7 6 6 6 5 4 3 2 2 3 5 7 10 11 13 16 18 20 21 22 23 24 26 28 28 28
10 9 9 11 13 11 9 8 8 7 7 6 6 5 5 4 4 3 3 2 2 3 5 4 6 7 9 16 21 25 28 29 30 30 29 29 28 27
9 8 9 10 13 14 15 14 14 10 8 6 5 6 7 6 5 4 2 3 3 3 6 6 6 8 7 9 20 27 29 31 32 32 32 30 29 28
8 7 8 10 11 7 10 13 14 17 15 9 7 7 8 9 8 5 3 2 3 4 7 7 7 9 8 14 23 26 29 30 31 31 31 30 28 26
8 7 7 8 8 8 8 8 9 11 13 10 9 9 10 10 8 6 4 1 4 3 4 8 8 9 10 12 22 26 28 29 29 29 29 28 27 25
10 9 9 6 11 15 10 9 9 10 15 19 19 18 21 21 16 5 1 4 5 3 4 5 7 8 9 9 15 24 26 27 27 26 26 25 24 22
9 11 14 12 15 17 11 9 10 10 11 13 15 17 16 18 23 14 6 2 5 3 3 3 6 5 5 6 7 12 18 23 25 24 22 21 19 16
9 9 10 18 20 20 17 11 14 12 9 10 10 11 12 12 14 14 13 7 4 3 2 3 4 4 5 4 5 7 9 12 15 17 17 17 16 14
9 7 11 21 22 22 17 19 21 16 9 10 11 12 13 12 12 12 14 14 12 9 7 5 4 5 6 5 5 4 7 9 10 9 11 14 14 14
9 16 19 21 19 16 21 23 18 12 11 11 12 12 11 11 11 11 11 12 16 17 17 13 8 7 6 7 7 6 5 5 6 6 6 6 6 6
9 14 19 20 17 18 17 14 12 11 11 10 10 10 10 11 12 12 11 10 11 14 17 20 14 11 10 10 10 8 6 5 5 6 5 4 6 7
9 7 8 8 10 9 9 10 10 10 11 10 10 10 11 11 11 11 11 11 11 12 12 12 16 18 15 11 9 9 9 8 6 4 4 3 2 2
11 7 8 9 9 9 9 9 9 9 9 9 9 10 10 10 10 10 10 10 11 11 10 9 6 7 9 12 14 9 8 7 5 5 3 3 2 3
8 6 6 6 7 7 7 7 7 8 7 7 8 8 8 8 9 9 10 9 10 10 10 10 9 6 8 7 8 12 7 5 4 4 4 3 2 2
4 4 5 5 5 5 5 5 5 5 6 6 6 6 7 7 7 7 8 9 9 9 9 10 10 9 7 5 4 5 10 6 4 4 3 3 2 5
4 3 3 3 3 3 4 4 4 4 4 4 5 5 5 5 6 7 7 11 9 8 8 7 7 9 4 5 6 4 5 8 5 3 2 2 3 3
3 3 2 2 2 2 2 3 3 3 3 3 3 4 4 4 4 5 5 5 5 5 5 5 6 6 6 6 5 3 3 4 5 3 1 2 1 1
3 3 3 3 2 2 2 2 3 2 2 2 2 2 2 3 3 3 3 3 3 4 4 4 4 4 4 3 3 2 2 3 3 3 3 4 5 8
Wind_Direction
308 305 307 308 307 305 302 298 289 285 288 296 303 316 328 322 290 215 221 234 237 238 240 237 233 228 221 215 210 205 202 198 195 193 195 195 193 188
310 305 309 310 309 309 307 304 294 283 278 289 298 307 317 316 311 303 261 260 251 240 237 235 232 228 223 217 210 205 201 196 192 193 194 193 187 178
312 310 312 315 316 314 312 310 305 295 283 285 287 298 306 312 312 306 283 271 263 246 236 232 229 226 223 218 210 204 199 194 191 192 193 187 177 164
314 313 316 319 318 318 314 308 307 306 295 291 292 296 296 302 300 296 282 262 248 241 231 226 223 220 216 211 206 199 193 189 187 187 185 177 165 156
315 318 318 317 318 317 314 312 312 311 301 289 288 289 286 293 295 289 272 242 218 192 197 200 200 198 196 194 191 185 179 175 175 174 167 157 153 150
317 316 315 314 313 315 316 320 319 315 311 301 291 288 283 283 273 261 254 220 184 140 115 117 127 137 149 155 154 150 146 143 142 141 138 137 137 137
315 316 317 327 333 337 337 339 339 335 331 324 315 316 311 307 286 270 240 198 154 138 119 106 101 102 110 119 122 125 124 122 121 120 119 118 118 119
315 321 328 337 343 351 354 8 11 8 360 352 346 343 337 327 313 296 238 188 175 147 124 105 98 99 92 101 115 116 117 118 118 117 115 113 112 113
321 331 343 346 352 353 7 20 16 18 22 15 3 355 345 338 320 299 270 212 152 150 128 109 96 95 92 106 113 113 115 115 116 117 117 115 113 112
338 345 346 338 356 27 31 28 22 17 20 21 17 10 4 354 330 291 267 182 101 83 116 115 105 93 87 92 105 109 112 113 115 116 116 115 115 114
353 2 353 350 28 49 42 31 25 19 19 25 26 24 20 19 17 10 46 152 134 81 35 99 113 92 71 68 89 102 107 110 112 114 114 114 114 111
1 -0 8 33 54 58 45 34 33 21 17 17 18 18 17 19 25 24 17 125 134 102 18 84 121 109 82 43 52 81 97 103 105 107 109 111 112 110
10 8 19 43 51 52 50 42 42 35 20 20 19 17 17 19 21 23 23 35 79 74 40 87 105 89 105 102 50 55 82 92 95 96 96 98 102 110
20 21 32 44 45 46 46 42 41 36 27 27 27 23 19 16 15 21 29 37 44 50 35 60 102 118 122 113 109 85 77 85 95 95 91 93 90 93
25 38 44 46 42 38 40 41 38 34 30 31 28 23 16 12 15 21 26 37 43 43 39 49 82 101 104 122 126 131 106 84 89 95 90 86 84 85
26 34 39 41 41 38 37 35 31 34 35 30 25 20 18 21 25 25 30 33 46 46 40 47 58 79 95 103 116 119 110 117 105 94 89 81 78 81
36 29 29 29 31 29 31 31 30 28 30 26 25 24 25 28 29 29 34 42 49 50 46 49 60 69 71 81 102 103 104 101 98 90 91 86 66 90
40 29 30 29 29 27 27 27 27 27 25 26 25 25 26 28 30 31 37 44 49 45 40 36 54 77 76 57 49 92 96 96 91 81 78 92 78 55
34 24 25 26 25 23 21 20 21 20 19 25 26 23 24 28 34 36 37 42 46 47 42 36 36 59 92 94 53 48 77 81 80 73 63 66 62 336
16 17 15 16 20 18 16 13 12 15 15 17 21 21 22 28 32 34 38 43 46 49 49 45 43 46 62 85 96 63 57 65 67 64 44 23 337 311
358 3 5 6 7 7 5 3 2 6 9 7 16 19 19 27 32 30 36 50 53 51 53 43 28 35 41 67 85 73 52 58 63 76 51 21 358 348
326 331 331 334 338 341 342 347 348 352 1 7 8 12 13 23 28 32 36 41 44 48 49 35 24 40 52 74 81 72 41 14 8 357 275 229 183 5
284 286 289 293 293 295 309 320 322 323 329 339 348 358 6 14 16 23 29 37 43 40 41 37 32 45 56 65 72 60 32 9 3 2 339 325 288 278
Height
1447 1445 1442 1440 1437 1435 1434 1433 1432 1428 1424 1423 1424 1425 1428 1430 1433 1436 1438 1441 1444 1446 1450 1454 1458 1463 1468 1473 1479 1485 1490 1495 1501 1506 1511 1516 1521 1525
1443 1441 1438 1435 1433 1431 1429 1427 1426 1425 1422 1420 1420 1420 1422 1424 1427 1430 1432 1435 1437 1439 1442 1446 1450 1455 1460 1466 1472 1477 1483 1489 1494 1499 1505 1510 1515 1519
1439 1437 1434 1431 1429 1426 1424 1422 1421 1420 1418 1415 1416 1416 1417 1419 1421 1424 1426 1429 1430 1433 1435 1439 1443 1447 1452 1458 1464 1470 1476 1481 1487 1493 1499 1504 1509 1513
1436 1433 1430 1428 1425 1422 1420 1418 1416 1415 1414 1411 1410 1411 1412 1414 1416 1418 1420 1422 1424 1426 1429 1432 1435 1439 1444 1450 1456 1462 1468 1474 1480 1486 1492 1497 1502 1507
1433 1430 1427 1425 1422 1419 1416 1414 1412 1410 1409 1407 1406 1406 1407 1409 1411 1412 1415 1416 1418 1420 1423 1425 1428 1432 1437 1442 1448 1454 1460 1467 1473 1479 1485 1490 1495 1501
1430 1428 1425 1422 1419 1416 1413 1411 1408 1406 1404 1403 1401 1401 1402 1403 1405 1407 1409 1411 1413 1416 1418 1420 1423 1427 1431 1435 1440 1446 1453 1460 1466 1472 1478 1483 1488 1494
1428 1425 1423 1420 1417 1414 1411 1408 1406 1403 1400 1398 1397 1397 1397 1398 1400 1402 1405 1407 1409 1411 1414 1417 1419 1422 1426 1431 1435 1440 1446 1453 1459 1465 1471 1476 1482 1487
1425 1423 1420 1418 1415 1412 1409 1406 1404 1401 1399 1396 1395 1394 1393 1394 1395 1397 1400 1402 1404 1407 1410 1414 1417 1420 1424 1428 1432 1436 1442 1448 1454 1460 1467 1472 1478 1483
1423 1421 1419 1416 1413 1410 1407 1404 1402 1400 1398 1396 1394 1392 1391 1390 1390 1392 1394 1396 1399 1403 1407 1411 1415 1418 1423 1427 1431 1434 1440 1446 1452 1458 1464 1470 1476 1482
1422 1420 1417 1414 1412 1409 1407 1404 1401 1399 1397 1394 1392 1391 1390 1388 1387 1387 1389 1392 1395 1399 1404 1408 1413 1418 1423 1428 1432 1435 1440 1445 1451 1457 1463 1469 1475 1481
1421 1418 1416 1414 1412 1409 1407 1404 1402 1399 1397 1394 1392 1389 1387 1385 1383 1384 1386 1388 1391 1395 1399 1404 1410 1416 1422 1428 1434 1438 1442 1447 1452 1458 1464 1469 1475 1481
1421 1418 1416 1414 1412 1410 1408 1406 1403 1401 1397 1394 1391 1389 1386 1383 1381 1381 1382 1385 1387 1392 1395 1400 1407 1414 1422 1429 1434 1439 1444 1449 1453 1460 1465 1470 1475 1480
1423 1420 1418 1416 1415 1413 1411 1409 1407 1404 1400 1396 1393 1390 1386 1384 1382 1380 1381 1383 1386 1389 1394 1399 1405 1411 1417 1427 1434 1439 1444 1449 1454 1460 1466 1471 1475 1480
1426 1424 1422 1420 1418 1416 1414 1412 1409 1406 1403 1399 1396 1392 1389 1387 1385 1383 1382 1383 1385 1388 1393 1398 1403 1409 1415 1423 1431 1438 1444 1449 1455 1460 1466 1470 1475 1479
1430 1429 1426 1423 1421 1419 1417 1414 1412 1409 1406 1403 1401 1398 1396 1393 1390 1388 1386 1386 1387 1390 1394 1399 1405 1411 1417 1422 1429 1436 1442 1448 1454 1459 1464 1469 1473 1477
1433 1431 1429 1427 1425 1422 1420 1417 1415 1413 1411 1409 1407 1404 1402 1399 1395 1393 1391 1391 1391 1393 1397 1402 1407 1412 1418 1424 1429 1435 1441 1446 1452 1457 1462 1466 1470 1474
1437 1434 1432 1429 1427 1425 1423 1421 1419 1417 1415 1413 1411 1409 1407 1404 1402 1400 1398 1397 1397 1398 1401 1404 1409 1414 1419 1424 1429 1435 1440 1445 1450 1455 1459 1463 1467 1470
1440 1437 1435 1433 1431 1429 1427 1425 1423 1421 1419 1418 1416 1414 1412 1410 1408 1406 1405 1404 1404 1405 1406 1409 1412 1416 1420 1426 1431 1435 1439 1444 1448 1453 1457 1460 1464 1466
1443 1441 1439 1437 1435 1433 1431 1429 1427 1425 1423 1421 1420 1418 1417 1415 1414 1412 1412 1411 1411 1411 1413 1414 1416 1419 1421 1426 1433 1437 1440 1444 1447 1451 1454 1458 1460 1463
1445 1443 1441 1439 1437 1435 1433 1431 1429 1428 1426 1424 1423 1421 1420 1419 1418 1418 1417 1417 1417 1418 1419 1420 1421 1423 1425 1428 1432 1437 1441 1444 1447 1449 1452 1455 1457 1460
1447 1445 1443 1441 1439 1437 1435 1433 1431 1430 1428 1427 1425 1424 1423 1423 1422 1422 1422 1422 1422 1422 1423 1424 1425 1427 1429 1432 1434 1437 1441 1443 1445 1447 1450 1452 1455 1456
1448 1445 1443 1441 1439 1438 1436 1434 1433 1431 1430 1428 1427 1426 1426 1425 1425 1425 1424 1425 1425 1425 1426 1427 1429 1430 1432 1434 1435 1438 1440 1442 1444 1446 1449 1450 1451 1453
1446 1444 1442 1440 1439 1437 1436 1434 1433 1432 1431 1430 1429 1428 1427 1427 1427 1426 1426 1427 1427 1428 1428 1429 1431 1432 1433 1435 1436 1438 1440 1441 1443 1445 1447 1447 1448 1449